Regional Weather Roundup
Issued by NWS

Home | Current Version | Previous Version | Text Only | Print | Product List | Glossary Off
Versions: 1 2 3 4 5 6 7 8 9 10 11 12 13 14 15 16 17 18 19 20 21 22 23 24 25 26 27 28 29 30 31 32 33 34 35 36 37 38 39 40 41 42 43 44 45 46 47 48 49 50

000
ASUS43 KMPX 131001
RWRMN
WEATHER ROUNDUP FOR MINNESOTA
NATIONAL WEATHER SERVICE TWIN CITIES/CHANHASSEN MN
400 AM CST WED DEC 13 2017


NOTE: "FAIR" INDICATES FEW OR NO CLOUDS BELOW 12,000 FEET WITH NO
SIGNIFICANT WEATHER AND/OR OBSTRUCTIONS TO VISIBILITY. N/A MEANS
CURRENT SKY AND/OR WEATHER CONDITIONS ARE NOT AVAILABLE.

MNZ060>063-068>070-131100-
   Twin Cities Metro

CITY           SKY/WX    TMP DP  RH WIND       PRES   REMARKS
TWIN CITIES    CLOUDY    28  25  88 SE8       29.37F WCI  20
ST PAUL        CLOUDY    29  24  82 SE7       29.39F WCI  22
CRYSTAL        CLOUDY    29  22  75 SE5       29.36F WCI  24
BLAINE         CLOUDY    30  27  86 SE6       29.36F WCI  24
LAKEVILLE      CLOUDY    28  25  86 S5        29.37F WCI  23
EDEN PRAIRIE   CLOUDY    30  24  78 SE7       29.35F WCI  23
SOUTH ST PAUL  CLOUDY    28  24  83 SE3       29.38F
LAKE ELMO      FAIR      30  27  86 SE3       29.40F
$$
MNZ001>005-007-008-013>017-022>024-027-028-131100-
   Northwest Minnesota

CITY           SKY/WX    TMP DP  RH WIND       PRES   REMARKS
BEMIDJI        CLOUDY    21  19  93 E6        29.39R WCI  13
HALLOCK        CLOUDY    23  21  93 N16       29.57R FOG     WCI  10
ROSEAU         CLOUDY    18  12  79 N9        29.53R WCI   6
WARROAD        CLOUDY    16  12  86 N6        29.52R WCI   7
CROOKSTON      CLOUDY    27  27 100 N33G39    29.52R WCI   9
FOSSTON        CLOUDY    30  27  86 NW24      29.43R WCI  16
DETROIT LAKES  LGT SNOW  32  32 100 NW20      29.42R WCI  20
MOORHEAD       CLOUDY    34  30  86 NW23G33   29.49R WCI  22
PARK RAPIDS    FRZ RAIN  23  20  88 CALM      29.39R
MAHNOMEN       CLOUDY    32  29  90 NW24G31   29.43R WCI  19
$$
MNZ006-009>011-018-025>026-131100-
   North Central Minnesota

CITY           SKY/WX    TMP DP  RH WIND       PRES   REMARKS
BAUDETTE       CLOUDY    15  13  91 E7        29.47R WCI   5
FLAG ISLAND    CLOUDY    14  10  85 N7        29.52R WCI   4
INTL FALLS     LGT SNOW  16  12  84 E7        29.46F FOG     WCI   6
WASKISH        CLOUDY    18  16  93 E6        29.44R WCI   9
BIG FORK       CLOUDY    16  12  86 SE6       29.42F WCI   7
LONGVILLE      LGT SNOW  18  18 100 CALM      29.38F
GRAND RAPIDS   LGT SNOW  14  11  87 VRB5      29.42F FOG     WCI   6
CRANE LAKE     LGT SNOW  14  12  92 CALM      29.51S
ORR            FLURRIES  16  12  86 SE3       29.43S
COOK           LGT SNOW  16  14  93 CALM      29.45S
WALKER         CLOUDY    20  18  92 E5        29.39R WCI  13
$$
MNZ012-019>021-037-131100-
   Northeast Minnesota

CITY           SKY/WX    TMP DP  RH WIND       PRES   REMARKS
DULUTH         LGT SNOW  16  14  92 E13       29.42F VSB 1   WCI   2
ELY            LGT SNOW  16  14  93 E3        29.45F
HIBBING        LGT SNOW  15  13  91 E8        29.42F FOG     WCI   4
EVELETH        LGT SNOW  17  14  86 E5        29.44F WCI  10
DULUTH HARBOR  LGT SNOW  19  18  93 E12       29.49F WCI   7
TWO HARBORS    LGT SNOW  21  16  79 E9        29.46F WCI  11
SILVER BAY     LGT SNOW  21  19  93 E9G16     29.48F WCI  11
GRAND MARAIS     N/A     23  19  85 SE17G23   29.60F WCI   9
G MARAIS ARPRT SNOW      16  10  79 E10G18    29.50F VSB 1/2 WCI   3
$$
MNZ029>031-032-039>041-046>048-054>057-064-131100-
   West Central Minnesota

CITY           SKY/WX    TMP DP  RH WIND       PRES   REMARKS
FERGUS FALLS   MIX PCPN  34  32  93 N23G29    29.45R WCI  22
WHEATON        LGT RAIN  37  34  87 NW28G38   29.48R
MORRIS         MOCLDY    39  28  65 NW23G31   29.40R
ALEXANDRIA     CLOUDY    34  27  75 NW14      29.37R WCI  25
ELBOW LAKE     DRIZZLE   34  30  85 NW22      29.41R WCI  22
WADENA         CLOUDY    23  23 100 N3        29.38S
GLENWOOD       CLOUDY    34  27  75 NW16G22   29.35R WCI  23
APPLETON       CLOUDY    43  27  52 NW26G36   29.40R
BENSON         CLOUDY    39  28  65 N22       29.39R
ORTONVILLE     CLOUDY    41  28  60 NW35G47   29.43R
MADISON        CLOUDY    45  28  53 NW24G33   29.42R
WILLMAR        FAIR      36  28  75 W12       29.35F
$$
MNZ033>034-036-042>043-049>051-058-059-131100-
   Central Minnesota

CITY           SKY/WX    TMP DP  RH WIND       PRES   REMARKS
ST CLOUD       CLOUDY    23  22  96 E6        29.34F WCI  16
SAUK CENTRE    FAIR      27  25  93 W3        29.36R
PAYNESVILLE    CLOUDY    29  28  95 CALM      29.33F
AITKIN         CLOUDY    19  18  93 NE5       29.38R WCI  13
PINE RIVER     CLOUDY    18  16  93 CALM      29.43F
BRAINERD       CLOUDY    22  18  85 N7        29.40R WCI  13
STAPLES        CLOUDY    21  19  93 CALM        N/A
LONG PRAIRIE   FAIR      23  21  93 NW3       29.36R
LITTLE FALLS   CLOUDY    25  19  80 CALM      29.35F
LITCHFIELD     CLOUDY    30  28  93 CALM      29.34F
BUFFALO        CLOUDY    29  25  84 E5        29.35F WCI  24
MAPLE LAKE     CLOUDY    30  27  90 CALM      29.35F
HUTCHINSON     CLEAR     32  28  83 SW5       29.33F WCI  27
$$
MNZ037-044-045-052-053-131100-
   East Central Minnesota

CITY           SKY/WX    TMP DP  RH WIND       PRES   REMARKS
PRINCETON      CLOUDY    27  25  93 CALM      29.37F
MORA           CLOUDY    21  19  93 E5        29.40F WCI  15
CAMBRIDGE      CLOUDY    27  19  74 E3        29.38F
RUSH CITY      CLOUDY    23  19  87 SE3       29.40R
MOOSE LAKE     LGT SNOW  19  16  86 CALM      29.40F
HINCKLEY       MIX PCPN  21  19  93 E5        29.43R WCI  15
CLOQUET        LGT SNOW  16  10  79 E9        29.41F VSB 1   WCI   4
MCGREGOR       CLOUDY    19  18  93 NE5       29.42R VSB 1   WCI  13
$$
MNZ071>073-080-081-089-090-097-098-131100-
   Southwest Minnesota

CITY           SKY/WX    TMP DP  RH WIND       PRES   REMARKS
MONTEVIDEO     CLOUDY    43  27  52 N22G32    29.39R
GRANITE FALLS  CLOUDY    43  28  56 W20       29.41R
CANBY          CLOUDY    44  27  51 NW26G35   29.45R
MARSHALL       CLOUDY    43  25  49 NW26G32   29.41R
REDWOOD FALLS  CLOUDY    41  26  55 W18       29.36F
OLIVIA         CLOUDY    37  30  75 W17       29.35S
PIPESTONE      CLOUDY    41  25  52 NW18G28   29.47R
WINDOM         CLOUDY    37  21  52 W16G23    29.40F
WORTHINGTON    CLOUDY    38  24  57 W22       29.45F
JACKSON        CLOUDY    37  23  56 MISG      29.42F
SLAYTON        MOCLDY    39  26  59 W23       29.44S
$$
MNZ065>067-074>077-082>085-091>093-131100-
   South Central Minnesota

CITY           SKY/WX    TMP DP  RH WIND       PRES   REMARKS
MANKATO        CLOUDY    32  25  75 S9        29.37F WCI  24
NEW ULM        CLOUDY    34  25  69 W9        29.35F WCI  26
ST JAMES       CLOUDY    39  25  56 W16G24    29.38F
FAIRMONT       CLOUDY    38  24  57 W18G25    29.40F
GLENCOE        CLOUDY    31  28  86 S6        29.33F WCI  25
FARIBAULT      CLOUDY    30  25  80 S8        29.37F WCI  23
OWATONNA       CLOUDY    30  25  80 S12       29.38F WCI  21
WASECA         CLOUDY    32  27  80 S10       29.38F WCI  24
$$
MNZ078>079-086>088-094>096-131100-
   Southeast Minnesota

CITY           SKY/WX    TMP DP  RH WIND       PRES   REMARKS
ROCHESTER      CLOUDY    27  23  85 S17       29.39F WCI  14
RED WING       CLOUDY    30  21  69 SE8       29.40F WCI  23
STANTON        CLOUDY    31  25  78 S6        29.36F WCI  25
DODGE CENTER   CLOUDY    27  23  86 S16       29.37F WCI  14
WINONA         CLOUDY    30  23  74 SE7       29.47F WCI  23
AUSTIN         CLOUDY    27  21  80 S9        29.41F WCI  17
PRESTON        CLOUDY    27  22  81 S16       29.43F WCI  15
$$
ABBREVIATIONS USED IN REMARKS
   TC - TEMPERATURES IN CELSIUS
  WCI - WIND CHILL INDEX
   HX - HEAT INDEX
  VSB - VISIBILITY
$$




USA.gov is the U.S. government's official web portal to all federal, state and local government web resources and services.